Regional Weather Roundup
Issued by NWS Charleston, SC

Current Version | Previous Version | Text Only | Print | Product List | Glossary Off
Versions: 1 2 3 4 5 6 7 8 9 10 11 12 13 14 15 16 17 18 19 20 21 22 23 24 25 26 27 28 29 30 31 32 33 34 35 36 37 38 39 40 41 42 43 44 45 46 47 48 49 50

000
ASUS42 KCHS 241925
RWRCHS

REGIONAL WEATHER ROUNDUP
NATIONAL WEATHER SERVICE CHARLESTON SC
200 PM EST WED DEC 24 2014

NOTE: "FAIR" INDICATES FEW OR NO CLOUDS BELOW 12,000 FEET WITH NO
SIGNIFICANT WEATHER AND/OR OBSTRUCTIONS TO VISIBILITY.

NOT ALL STATIONS ARE QUALITY CONTROLLED BY THE NATIONAL
WEATHER SERVICE. USE DATA WITH CAUTION...ESPECIALLY
DEWPOINT OBSERVATIONS.

SCZ027-030-031-034>040-042>050-242000-
...SOUTHEAST SOUTH CAROLINA...

CITY           SKY/WX    TMP DP  RH WIND       PRES   REMARKS
N CHARLESTON   RAIN      68  66  94 SW14      29.81R FOG
WATERFRONT PRK   N/A     68 N/A N/A SW13G20     N/A
MOUNT PLEASANT CLOUDY    70  68  94 SW14G22   29.81R FOG
PINOPOLIS      NOT AVBL
MONCKS CORNER  LGT RAIN  68  64  88 SW7       29.80F
SUMMERVILLE    CLOUDY    66  66 100 S3        29.80F
BEAUFORT MCAS  CLOUDY    68  66  93 CALM      29.80F
BEAUFORT ARPT  CLOUDY    66  66 100 S5        29.79F FOG
HILTON HEAD IS PTSUNNY   66  66 100 SW8       29.81S FOG
WALTERBORO     RAIN      68 N/A N/A S7        29.79F
ALLENDALE      LGT RAIN  66  66 100 SE12      29.74F

...SOUTHERN MIDLANDS AND PEE DEE...

CITY           SKY/WX    TMP DP  RH WIND       PRES   REMARKS
GEORGETOWN     NOT AVBL
KINGSTREE      NOT AVBL
ORANGEBURG     RAIN      67  64  90 S13       29.75S FOG
BARNWELL       DRIZZLE   66  64  94 S10       29.73F
AIKEN          DRIZZLE   64  64 100 S16       29.71F
MANNING        CLOUDY    68 N/A N/A S6        29.79R
COLUMBIA       LGT RAIN  65  64  97 S10       29.70F
SUMTER         LGT RAIN  66  66 100 S9        29.72S
FLORENCE       LGT RAIN  68  64  87 S9        29.74F
MYRTLE BEACH   RAIN      72  68  88 SW22G29   29.79F FOG
N MYRTLE BEACH RAIN      68  66  93 SW22G31   29.77F FOG

$$

GAZ063-065-086>088-099>101-113>116-118-119-134>141-150-242000-
...SOUTHEAST GEORGIA...

CITY           SKY/WX    TMP DP  RH WIND       PRES   REMARKS
SAVANNAH ARPT  CLOUDY    69  64  84 CALM      29.76F
HUNTER AAF     CLOUDY    68  68 100 SE6       29.75F
FORT STEWART   LGT RAIN  68  66  94 SW9       29.76R
STATESBORO     LGT RAIN  66  66 100 S8        29.73F
SYLVANIA       LGT RAIN  66  66 100 S6        29.75F
CLAXTON        RAIN      66  66 100 S6        29.73F

...CSRA...CENTRAL AND FAR SOUTHEAST GEORGIA...

CITY           SKY/WX    TMP DP  RH WIND       PRES   REMARKS
THOMSON        CLOUDY    68  68  99 S7G16     29.72S
AUGUSTA-BUSH   LGT RAIN  67  65  93 S12G23    29.69S
AUGUSTA-DANIEL LGT RAIN  67  65  93 S17       29.70S
SWAINSBORO     LGT RAIN N/A N/A N/A SW5       29.71F
VIDALIA        LGT RAIN  66  66 100 SW8       29.71F
EASTMAN        CLOUDY    69  69 100 SW8       29.72F
HAZLEHURST     LGT RAIN  69  69 100 SW5       29.71R
ALMA           LGT RAIN  68  66  93 S9        29.73F FOG
WAYCROSS       LGT RAIN  69  68  95 SW9       29.74
JESUP          HVY RAIN  70  68  94 W8G21     29.78F
BAXLEY         LGT RAIN  70  68  94 S9        29.71F
BRUNSWICK      CLOUDY    72  64  78 S7        29.77F
SAINT SIMONS   CLOUDY    66  62  87 S9        29.77F

$$

SCZ027-028-034-036>038-045-046-048>050-GAZ119-141-242000-
...LAKE AND SUPPLEMENTAL COASTAL OBSERVATIONS...

STATION/POSITION TIME  TEMP    WIND        PRES    WAVE   SWELL
                       AIR SEA DIR/SP/G            HT/PER HT/PER/DIR
                 (UTC) (F)     (DEG/KT/KT) (MB)    (FT/S) (FT/S/D)
UPR LAKE MARION  NOT AVBL
WINYAH BAY       1900   70     210/ 13     1008.0S
LAKE MURRAY      1900   61     130/  6/ 10 1005.1F
ACE BASIN NERRS  1900   66     230/  2     1009.0S
FORT PULASKI     1900   65 56  200/  4/  5 1008.7F
SAPELO ISLAND    1900   67     160/ 11     1007.0F

$$

ANZ835-935-AMZ111-154-330-350-352-354-370-450-454-472-242000-
...C-MAN AND BUOY OBSERVATIONS...

STATION/POSITION TIME  TEMP    WIND        PRES    WAVE   SWELL
                       AIR SEA DIR/SP/G            HT/PER HT/PER/DIR
                 (UTC) (F)     (DEG/KT/KT) (MB)    (FT/S) (FT/S/D)
BUOY 41004       1900   76 73  190/ 25/ 33 1007.9F   9/ 8   2/14
BUOY 41008       1800   65 59  170/ 17/ 21 1008.6F   6/ 7
FOLLY BEACH CMAN 1900   63     230/  9/ 12 1009.5S
CAPERS NEARSHORE 1800   63     240/ 14/ 17   N/A
FRIPP NEARSHORE  NOT AVBL


STATION/POSITION TIME  TEMP    WIND        PRES    WAVE   SWELL
                       AIR SEA DIR/SP/G            HT/PER HT/PER/DIR
                 (UTC) (F)     (DEG/KT/KT) (MB)    (FT/S) (FT/S/D)
5E ST. MARYS GA  1900      61                N/A     4/ 7
FRYING PAN BUOY  1900   75 71  190/ 25/ 29 1009.4F  10/ 8
BUOY 41025       1900   75                 1009.7F   8/ 7
CAPE LOOKOUT NC  1900   65     180/ 17/ 18 1009.5S
BUOY 41002       NOT AVBL
BUOY 41010       1900   77 77  180/ 19/ 23 1013.6S   5/ 6   2/110/10
ST AUGUSTINE FL  1900   80     210/ 16/ 19 1009.6F


$$



USA.gov is the U.S. government's official web portal to all federal, state and local government web resources and services.